Simultaneous Nadir Overpasses (SNOs) Predictions

Prediction of SNOs between LANDSAT-8 and METOP-A Satellite Orbit:

Table of predicted SNOs for the next 14.0 days since TLE Epoch: 5/29/2021
Index Date (LANDSAT-8) Time (LANDSAT-8) Lat,Lon (LANDSAT-8) SZA (LANDSAT-8 ) Date (METOP-A) Time (METOP-A) Lat,Lon (METOP-A) SZA (METOP-A ) Distance(km) Time Diff (sec)
1 05/31/2021 02:09:34 81.39,-167.76 62.12 05/31/2021 02:08:55 81.38,-167.69 62.10 1.61 39
2 05/31/2021 02:59:01 -81.38, -0.21 117.90 05/31/2021 02:59:36 -81.38, -0.41 117.91 3.39 35
3 06/02/2021 21:43:50 81.38,-101.50 61.71 06/02/2021 21:43:16 81.38,-101.38 61.71 1.99 34
4 06/02/2021 22:33:17 -81.37, 66.07 118.31 06/02/2021 22:33:57 -81.38, 65.91 118.30 2.67 40
5 06/05/2021 17:18:07 81.37, -35.28 61.35 06/05/2021 17:17:38 81.38, -35.10 61.36 3.39 29
6 06/05/2021 18:07:34 -81.36, 132.32 118.67 06/05/2021 18:08:19 -81.38, 132.22 118.64 2.29 45
7 06/08/2021 12:52:23 81.37, 31.29 61.09 06/08/2021 12:52:00 81.38, 31.18 61.07 2.12 23
8 06/08/2021 13:41:50 -81.37,-161.09 118.92 06/08/2021 13:42:40 -81.37,-161.10 118.90 0.51 50
9 06/11/2021 08:26:38 81.38, 97.83 60.87 06/11/2021 08:26:20 81.37, 97.82 60.86 0.82 18



Historial Predications of SNOs between LANDSAT-8 and METOP-A
